SCP
-0 -0 -0 -0 -0 -0 -0 -0 -0 -0 -0 -0 -0 -0 -0 -0 -0 -0 -0 -0 -0 -0 -0 -0 -0 -0 -0 -0 0 0 0 0 0 0 0 0 0 0 0 0 0 0 0
-0 -0 -0 -0 -0 -0 -0 -0 -0 -0 -0 -0 -0 -0 -0 -0 -0 -0 -0 -0 -0 -0 -0 -0 -0 -0 -0 -0 0 0 0 0 0 0 0 0 0 0 0 0 0 0 0
-0 -0 -0 -0 -0 -0 -0 -0 -0 -0 -0 -0 -0 -0 -0 -0 -0 -0 -0 -0 -0 -0 -0 -0 -0 -0 -0 -0 0 0 0 0 0 0 0 0 0 0 0 0 0 0 0
-0 -0 -0 -0 -0 -0 -0 -0 -0 -0 -0 -0 -0 -0 -0 -0 -0 -0 -0 -0 -0 -0 -0 -0 -0 -0 -0 -0 -0 0 0 0 0 0 0 0 0 0 0 0 0 0 0
0 -0 -0 -0 -0 -0 -0 -0 -0 -0 -0 -0 -0 -0 -0 -0 -0 -0 -0 -0 -0 -0 -0 -0 -0 -0 -0 -0 0 0 0 0 0 -0 0 0 0 0 0 0 0 0 0
0 -0 -0 -0 -0 -0 -0 -0 -0 -0 -0 -0 -0 -0 -0 -0 0 -0 -0 -0 -0 -0 -0 -0 -0 -0 -0 -0 0 0 0 0 0 -0 0 0 0 0 0 0 0 0 0
0 0 0 0 0 0 0 0 0 0 -0 -0 -0 -0 -0 -0 0 0 0 0 -0 -0 -0 -0 -0 -0 -0 -0 0 0 0 0 -0 0 0 0 0 0 0 0 0 0 0
0 0 0 0 0 0 0 0 0 0 0 0 -0 -0 -0 -0 0 0 0 0 0 0 0 -0 -0 -0 -0 0 0 0 0 0 0 0 0 0 0 0 0 0 0 0 0
0 0 0 0 0 0 0 0 0 0 0 0 0 0 0 0 0 0 0 0 0 0 0 0 0 0 0 0 0 0 0 0 -0 0 0 0 0 0 0 0 0 0 0
0 0 0 0 0 0 0 0 0 0 0 0 0 0 0 0 0 0 0 0 0 0 0 0 0 0 0 0 0 0 0 0 0 0 0 0 0 0 0 0 0 0 0
0 0 0 0 0 0 0 1 1 0 0 0 0 0 0 0 0 0 0 0 0 0 0 0 0 0 0 0 0 0 0 0 0 0 0 0 0 0 0 0 0 0 0
0 0 0 1 1 1 1 1 1 1 0 0 0 0 0 0 0 0 0 1 1 1 0 0 0 0 0 0 0 0 0 0 0 0 0 0 0 0 0 0 0 0 0
0 0 0 0 2 1 1 1 1 1 1 1 0 0 0 0 0 0 0 0 0 0 0 0 0 0 0 0 0 0 0 0 0 0 0 0 0 0 0 0 0 0 0
0 0 0 0 0 1 1 1 1 1 1 1 1 1 1 1 0 0 0 0 0 0 0 0 0 0 0 0 0 0 0 0 0 0 0 0 0 0 0 0 0 0 0
0 0 0 0 0 0 1 2 2 1 2 1 1 1 1 1 1 0 0 0 0 0 0 0 0 0 0 0 0 0 0 0 0 0 1 0 0 0 0 0 0 0 0
0 0 0 0 0 0 0 1 1 1 1 2 2 1 1 1 1 1 0 0 0 0 0 0 0 0 0 0 0 0 0 0 0 0 0 1 0 0 0 0 0 0 0
0 0 0 0 0 0 0 1 1 1 1 2 2 2 2 2 1 1 1 1 0 0 0 0 0 0 0 0 0 0 0 0 0 0 1 1 0 0 0 0 0 0 0
0 0 0 0 0 0 0 0 1 1 2 1 1 2 2 3 2 1 1 1 1 0 0 0 0 0 0 0 0 0 0 0 0 1 1 1 1 0 0 0 0 0 0
0 0 0 0 0 0 0 0 1 2 2 2 1 1 3 2 2 2 1 1 1 1 0 0 0 0 0 0 0 0 0 0 0 0 1 1 1 0 0 0 0 0 0
0 0 0 0 0 0 0 0 0 0 2 3 2 2 2 3 2 2 1 1 2 1 1 1 1 0 0 0 0 0 0 1 1 1 1 1 1 0 0 0 0 0 0
0 0 0 0 0 0 0 0 0 0 1 2 3 2 2 2 2 3 2 1 1 1 1 1 1 1 1 1 1 0 1 1 1 2 1 1 1 0 0 0 0 0 0
0 0 0 0 0 0 0 0 0 1 1 1 1 2 2 2 2 3 2 2 1 1 1 2 1 1 1 1 1 0 1 0 0 0 0 1 0 0 0 0 0 0 0
0 0 0 0 0 0 0 0 0 0 1 1 2 2 2 2 3 3 2 1 2 2 1 1 1 1 2 1 1 0 0 0 0 0 0 0 0 0 0 0 0 0 0
0 0 0 0 0 0 0 0 0 0 1 1 1 1 2 2 1 1 2 1 2 2 1 1 1 0 0 2 1 0 1 1 1 0 0 0 0 0 0 0 0 0 0
0 0 0 0 0 0 0 0 0 0 0 1 1 2 4 4 1 1 1 1 2 2 1 1 1 1 1 0 1 1 1 2 2 1 0 0 0 0 0 0 0 0 0
0 0 0 0 0 0 -0 -0 0 0 0 0 1 1 2 2 2 3 2 2 2 1 2 2 1 1 1 1 1 0 3 2 1 1 0 0 0 0 0 0 0 0 0
Wind_Speed_500mb
19 24 25 24 22 20 19 19 34 38 33 29 32 41 43 42 42 41 40 38 34 30 26 24 26 25 25 23 22 22 19 17 15 20 22 25 28 31 34 37 27 30 37
22 26 26 23 19 16 16 26 36 39 34 30 32 39 41 41 40 40 38 35 31 27 25 22 23 22 20 20 19 20 20 17 15 14 18 22 26 29 32 34 33 33 35
24 28 27 24 20 15 16 23 34 39 34 32 32 37 40 40 39 39 37 32 28 27 24 19 18 19 17 15 15 14 14 13 13 13 19 10 16 26 29 33 34 32 34
24 28 29 24 20 16 16 23 33 36 34 33 32 34 38 39 37 37 36 31 27 25 21 18 16 16 14 12 11 9 7 8 12 18 18 10 10 23 27 28 32 32 34
24 25 25 22 20 17 16 22 31 35 33 32 32 33 35 37 36 36 35 31 27 23 21 19 16 14 11 8 6 4 2 5 9 19 5 6 5 20 25 29 29 28 25
20 21 20 19 17 16 16 17 26 33 34 34 33 33 33 34 36 36 35 33 29 24 24 21 17 14 10 7 5 2 4 6 11 6 1 2 5 15 24 20 23 26 28
17 15 20 20 20 18 17 17 19 26 33 36 36 35 34 34 35 37 36 33 31 27 26 22 18 14 12 10 9 6 7 7 7 7 5 7 6 13 20 21 23 25 28
13 15 14 19 20 20 21 20 20 21 27 34 37 39 38 36 36 37 38 35 32 28 26 23 19 16 14 13 12 11 9 6 5 8 7 3 8 10 16 17 21 24 28
9 9 8 12 20 22 22 22 22 23 25 28 34 38 40 40 40 40 40 39 34 30 28 25 21 19 17 16 15 15 12 6 7 7 7 5 5 7 12 14 17 23 26
3 0 2 7 10 18 20 25 26 26 27 29 31 35 39 41 42 43 44 44 39 33 30 27 23 22 20 19 19 17 14 10 3 9 7 16 7 6 8 11 15 20 25
4 7 6 8 11 15 18 23 30 32 32 33 33 36 37 38 41 46 47 47 44 38 35 32 28 25 23 22 23 20 16 7 11 10 10 12 8 7 8 9 13 17 21
8 10 12 15 16 15 16 22 26 29 36 38 38 38 38 33 33 36 39 51 48 45 41 38 34 30 26 17 19 22 14 15 12 14 16 12 10 9 8 9 11 13 16
10 11 13 18 19 18 21 20 21 24 27 32 40 39 37 33 34 38 35 47 52 52 45 43 41 35 23 23 20 18 16 15 12 12 24 10 11 9 9 9 9 10 14
18 17 15 17 22 26 25 27 25 29 29 32 35 44 41 41 37 36 38 35 38 39 40 36 31 29 30 26 24 21 19 17 15 13 23 18 16 11 10 8 8 10 14
28 29 25 26 30 29 34 34 31 32 34 33 33 38 42 48 40 37 38 39 38 38 38 38 35 33 28 27 25 25 21 21 19 14 19 20 18 16 13 8 9 11 14
42 45 45 42 40 37 36 47 44 35 37 36 37 38 42 41 48 51 40 39 39 39 39 37 36 33 29 26 25 26 24 22 21 19 17 25 24 20 14 11 10 12 13
43 51 54 53 51 49 44 44 50 40 40 41 39 42 44 46 43 43 41 40 38 38 39 38 37 34 30 28 27 25 23 24 23 21 19 23 26 23 18 14 13 13 10
31 37 42 51 56 57 55 50 41 45 44 43 41 42 49 51 51 47 45 41 38 36 36 39 37 35 32 31 28 26 24 23 23 22 20 24 26 23 23 17 15 14 11
23 32 37 41 48 56 56 56 50 48 49 49 46 44 47 50 51 48 45 44 41 36 38 39 39 37 34 33 31 27 26 24 23 21 25 28 27 27 21 20 23 18 18
18 23 22 26 36 46 51 53 52 46 49 55 52 50 50 47 48 48 46 49 50 40 41 41 41 38 36 33 31 29 24 25 24 23 29 27 28 23 27 24 23 28 24
17 22 28 32 38 31 28 33 35 47 51 59 68 57 54 56 54 53 49 47 50 52 45 44 43 42 37 36 33 31 24 30 27 27 24 27 29 30 21 21 24 34 27
18 25 30 31 38 46 43 32 34 34 42 50 52 55 53 51 61 61 51 48 46 50 58 57 48 46 46 43 43 38 27 18 28 32 32 32 35 26 28 31 37 37 28
18 23 30 38 41 43 49 38 31 28 37 41 46 55 57 59 61 62 60 52 46 52 53 54 57 58 47 48 49 39 38 29 30 25 36 35 28 32 33 35 37 29 24
19 22 26 34 46 49 55 51 41 27 31 41 46 49 56 50 53 52 56 50 48 43 44 51 53 46 47 43 43 51 41 25 28 18 25 34 37 34 32 33 27 25 19
22 27 30 35 46 52 59 62 51 33 28 28 43 49 52 54 51 54 54 52 56 49 41 38 42 52 50 47 51 48 54 43 31 26 29 36 33 33 32 29 27 21 15
30 32 35 40 50 57 59 68 60 53 43 35 30 45 51 52 53 55 55 57 57 52 47 42 41 39 50 53 62 62 53 52 43 33 25 35 36 32 31 27 23 17 10
Wind_Direction_500mb
163 181 180 174 173 177 174 169 181 179 174 167 163 164 166 168 165 163 159 159 156 153 149 138 129 121 114 107 100 95 85 84 76 59 54 52 47 42 38 40 62 30 28
174 180 179 173 176 175 168 171 179 180 177 170 166 168 171 172 170 167 165 163 159 160 159 149 137 128 117 111 105 101 88 73 71 51 44 48 43 39 37 36 31 26 30
168 180 178 176 174 174 163 164 177 180 181 174 169 172 176 177 176 173 171 167 162 162 166 160 149 141 128 117 112 112 92 71 54 44 56 77 40 33 33 28 26 27 32
167 175 180 179 174 171 165 168 179 185 184 180 174 175 182 185 182 181 180 175 170 171 177 175 169 157 147 133 118 118 99 61 38 48 63 58 55 26 25 26 27 24 30
152 165 183 182 182 176 173 173 185 191 192 191 185 185 190 192 190 188 189 187 183 184 188 192 184 179 169 164 143 125 86 33 15 66 17 50 63 17 19 22 26 29 35
146 162 181 189 194 191 189 184 186 196 200 201 200 198 198 198 197 196 197 197 195 198 198 200 194 197 201 211 223 266 317 342 351 56 288 86 139 9 13 23 22 25 32
146 164 186 192 198 204 207 206 201 199 205 210 212 212 210 207 206 204 204 204 204 206 204 204 207 210 224 237 255 274 302 325 55 254 247 110 308 7 11 15 23 23 33
141 155 205 204 208 212 214 215 216 215 213 215 218 219 218 217 215 213 211 211 210 210 207 211 217 226 237 247 259 275 287 310 33 223 187 173 331 5 6 14 23 26 33
111 144 191 218 223 221 222 223 225 226 225 224 224 224 224 222 222 220 218 216 216 213 213 214 220 231 241 252 260 271 279 285 144 230 182 218 349 2 355 15 24 30 32
59 50 209 214 246 242 242 234 232 231 231 231 230 231 229 227 225 223 221 220 219 218 215 215 221 232 242 253 259 264 273 269 199 223 200 226 286 328 338 15 26 28 30
296 267 267 256 245 232 227 252 239 238 236 234 233 230 229 227 225 224 222 222 221 222 221 220 227 235 245 252 257 263 267 262 251 217 227 264 266 289 331 0 20 23 27
286 275 263 267 258 254 244 239 257 243 243 239 236 234 226 217 219 214 222 225 221 223 227 231 234 238 242 243 265 260 257 250 235 237 230 264 258 278 316 338 5 12 18
324 300 276 275 272 255 260 251 248 245 241 238 234 230 228 221 221 218 217 227 224 226 230 238 239 239 234 226 234 239 237 241 237 234 241 251 249 262 296 318 343 352 359
330 328 322 280 270 267 254 259 245 249 243 239 235 237 225 223 221 218 219 224 224 224 225 226 232 228 225 231 226 231 234 228 239 236 248 240 244 251 280 293 319 326 345
321 312 312 293 282 272 259 252 254 247 253 242 239 234 229 233 224 225 222 219 221 223 227 224 224 229 229 233 234 237 233 232 231 228 247 243 241 243 251 271 292 312 324
302 296 289 286 280 277 272 265 265 252 245 247 239 239 236 232 235 234 228 226 222 221 223 226 227 226 227 229 233 233 233 233 238 233 236 247 224 230 244 256 270 299 313
302 292 288 279 269 265 263 262 258 247 248 240 242 239 238 241 230 228 230 228 227 224 220 221 223 224 225 230 230 234 233 235 236 231 212 233 233 217 228 247 260 281 303
306 299 292 286 275 265 258 256 253 244 242 242 241 241 245 241 247 245 231 229 228 221 223 220 221 225 228 231 230 230 235 227 229 223 215 228 210 214 219 243 242 262 274
330 311 299 294 287 272 263 257 251 247 240 238 240 238 240 245 250 257 242 228 227 222 220 220 220 220 225 224 228 226 223 225 231 232 222 212 211 218 231 224 230 252 253
30 19 6 335 307 286 274 261 254 247 242 237 234 237 236 238 252 255 251 238 226 222 224 220 218 220 218 224 223 228 222 228 230 226 219 215 215 208 217 231 236 241 263
20 19 21 16 12 348 325 275 261 250 249 247 243 234 234 247 245 249 251 243 234 231 222 227 220 214 218 212 214 212 216 212 205 218 213 204 206 215 211 216 222 239 263
7 1 2 7 12 13 1 339 263 249 255 249 247 237 235 235 245 242 244 248 234 233 234 227 226 218 215 210 205 208 198 205 190 202 196 204 222 221 225 204 216 236 268
347 347 346 350 357 359 359 352 344 271 256 252 246 237 236 234 238 245 246 241 234 236 233 235 237 228 218 215 205 207 216 226 184 209 209 210 212 215 230 228 233 245 253
336 338 339 336 336 341 348 350 343 337 274 255 253 244 237 242 232 234 237 238 228 230 231 240 240 224 223 224 218 213 220 229 193 171 186 191 205 215 219 219 228 245 247
325 325 329 330 333 325 324 333 338 319 310 287 258 251 242 240 242 232 232 230 233 229 229 227 241 239 234 220 228 223 220 221 207 200 185 187 198 203 210 221 231 231 252
311 314 319 324 327 326 323 323 323 324 305 300 283 251 245 242 240 237 228 229 234 230 225 232 234 241 240 236 233 233 224 213 215 204 181 182 195 193 201 210 222 231 269
Wind_Speed_850mb
19 24 25 24 22 20 19 19 34 38 33 29 32 41 43 42 42 41 40 38 34 30 26 24 26 25 25 23 22 22 19 17 15 20 22 25 28 31 34 37 27 30 37
22 26 26 23 19 16 16 26 36 39 34 30 32 39 41 41 40 40 38 35 31 27 25 22 23 22 20 20 19 20 20 17 15 14 18 22 26 29 32 34 33 33 35
24 28 27 24 20 15 16 23 34 39 34 32 32 37 40 40 39 39 37 32 28 27 24 19 18 19 17 15 15 14 14 13 13 13 19 10 16 26 29 33 34 32 34
24 28 29 24 20 16 16 23 33 36 34 33 32 34 38 39 37 37 36 31 27 25 21 18 16 16 14 12 11 9 7 8 12 18 18 10 10 23 27 28 32 32 34
24 25 25 22 20 17 16 22 31 35 33 32 32 33 35 37 36 36 35 31 27 23 21 19 16 14 11 8 6 4 2 5 9 19 5 6 5 20 25 29 29 28 25
20 21 20 19 17 16 16 17 26 33 34 34 33 33 33 34 36 36 35 33 29 24 24 21 17 14 10 7 5 2 4 6 11 6 1 2 5 15 24 20 23 26 28
17 15 20 20 20 18 17 17 19 26 33 36 36 35 34 34 35 37 36 33 31 27 26 22 18 14 12 10 9 6 7 7 7 7 5 7 6 13 20 21 23 25 28
13 15 14 19 20 20 21 20 20 21 27 34 37 39 38 36 36 37 38 35 32 28 26 23 19 16 14 13 12 11 9 6 5 8 7 3 8 10 16 17 21 24 28
9 9 8 12 20 22 22 22 22 23 25 28 34 38 40 40 40 40 40 39 34 30 28 25 21 19 17 16 15 15 12 6 7 7 7 5 5 7 12 14 17 23 26
3 0 2 7 10 18 20 25 26 26 27 29 31 35 39 41 42 43 44 44 39 33 30 27 23 22 20 19 19 17 14 10 3 9 7 16 7 6 8 11 15 20 25
4 7 6 8 11 15 18 23 30 32 32 33 33 36 37 38 41 46 47 47 44 38 35 32 28 25 23 22 23 20 16 7 11 10 10 12 8 7 8 9 13 17 21
8 10 12 15 16 15 16 22 26 29 36 38 38 38 38 33 33 36 39 51 48 45 41 38 34 30 26 17 19 22 14 15 12 14 16 12 10 9 8 9 11 13 16
10 11 13 18 19 18 21 20 21 24 27 32 40 39 37 33 34 38 35 47 52 52 45 43 41 35 23 23 20 18 16 15 12 12 24 10 11 9 9 9 9 10 14
18 17 15 17 22 26 25 27 25 29 29 32 35 44 41 41 37 36 38 35 38 39 40 36 31 29 30 26 24 21 19 17 15 13 23 18 16 11 10 8 8 10 14
28 29 25 26 30 29 34 34 31 32 34 33 33 38 42 48 40 37 38 39 38 38 38 38 35 33 28 27 25 25 21 21 19 14 19 20 18 16 13 8 9 11 14
42 45 45 42 40 37 36 47 44 35 37 36 37 38 42 41 48 51 40 39 39 39 39 37 36 33 29 26 25 26 24 22 21 19 17 25 24 20 14 11 10 12 13
43 51 54 53 51 49 44 44 50 40 40 41 39 42 44 46 43 43 41 40 38 38 39 38 37 34 30 28 27 25 23 24 23 21 19 23 26 23 18 14 13 13 10
31 37 42 51 56 57 55 50 41 45 44 43 41 42 49 51 51 47 45 41 38 36 36 39 37 35 32 31 28 26 24 23 23 22 20 24 26 23 23 17 15 14 11
23 32 37 41 48 56 56 56 50 48 49 49 46 44 47 50 51 48 45 44 41 36 38 39 39 37 34 33 31 27 26 24 23 21 25 28 27 27 21 20 23 18 18
18 23 22 26 36 46 51 53 52 46 49 55 52 50 50 47 48 48 46 49 50 40 41 41 41 38 36 33 31 29 24 25 24 23 29 27 28 23 27 24 23 28 24
17 22 28 32 38 31 28 33 35 47 51 59 68 57 54 56 54 53 49 47 50 52 45 44 43 42 37 36 33 31 24 30 27 27 24 27 29 30 21 21 24 34 27
18 25 30 31 38 46 43 32 34 34 42 50 52 55 53 51 61 61 51 48 46 50 58 57 48 46 46 43 43 38 27 18 28 32 32 32 35 26 28 31 37 37 28
18 23 30 38 41 43 49 38 31 28 37 41 46 55 57 59 61 62 60 52 46 52 53 54 57 58 47 48 49 39 38 29 30 25 36 35 28 32 33 35 37 29 24
19 22 26 34 46 49 55 51 41 27 31 41 46 49 56 50 53 52 56 50 48 43 44 51 53 46 47 43 43 51 41 25 28 18 25 34 37 34 32 33 27 25 19
22 27 30 35 46 52 59 62 51 33 28 28 43 49 52 54 51 54 54 52 56 49 41 38 42 52 50 47 51 48 54 43 31 26 29 36 33 33 32 29 27 21 15
30 32 35 40 50 57 59 68 60 53 43 35 30 45 51 52 53 55 55 57 57 52 47 42 41 39 50 53 62 62 53 52 43 33 25 35 36 32 31 27 23 17 10
Wind_Direction_850mb
163 181 180 174 173 177 174 169 181 179 174 167 163 164 166 168 165 163 159 159 156 153 149 138 129 121 114 107 100 95 85 84 76 59 54 52 47 42 38 40 62 30 28
174 180 179 173 176 175 168 171 179 180 177 170 166 168 171 172 170 167 165 163 159 160 159 149 137 128 117 111 105 101 88 73 71 51 44 48 43 39 37 36 31 26 30
168 180 178 176 174 174 163 164 177 180 181 174 169 172 176 177 176 173 171 167 162 162 166 160 149 141 128 117 112 112 92 71 54 44 56 77 40 33 33 28 26 27 32
167 175 180 179 174 171 165 168 179 185 184 180 174 175 182 185 182 181 180 175 170 171 177 175 169 157 147 133 118 118 99 61 38 48 63 58 55 26 25 26 27 24 30
152 165 183 182 182 176 173 173 185 191 192 191 185 185 190 192 190 188 189 187 183 184 188 192 184 179 169 164 143 125 86 33 15 66 17 50 63 17 19 22 26 29 35
146 162 181 189 194 191 189 184 186 196 200 201 200 198 198 198 197 196 197 197 195 198 198 200 194 197 201 211 223 266 317 342 351 56 288 86 139 9 13 23 22 25 32
146 164 186 192 198 204 207 206 201 199 205 210 212 212 210 207 206 204 204 204 204 206 204 204 207 210 224 237 255 274 302 325 55 254 247 110 308 7 11 15 23 23 33
141 155 205 204 208 212 214 215 216 215 213 215 218 219 218 217 215 213 211 211 210 210 207 211 217 226 237 247 259 275 287 310 33 223 187 173 331 5 6 14 23 26 33
111 144 191 218 223 221 222 223 225 226 225 224 224 224 224 222 222 220 218 216 216 213 213 214 220 231 241 252 260 271 279 285 144 230 182 218 349 2 355 15 24 30 32
59 50 209 214 246 242 242 234 232 231 231 231 230 231 229 227 225 223 221 220 219 218 215 215 221 232 242 253 259 264 273 269 199 223 200 226 286 328 338 15 26 28 30
296 267 267 256 245 232 227 252 239 238 236 234 233 230 229 227 225 224 222 222 221 222 221 220 227 235 245 252 257 263 267 262 251 217 227 264 266 289 331 0 20 23 27
286 275 263 267 258 254 244 239 257 243 243 239 236 234 226 217 219 214 222 225 221 223 227 231 234 238 242 243 265 260 257 250 235 237 230 264 258 278 316 338 5 12 18
324 300 276 275 272 255 260 251 248 245 241 238 234 230 228 221 221 218 217 227 224 226 230 238 239 239 234 226 234 239 237 241 237 234 241 251 249 262 296 318 343 352 359
330 328 322 280 270 267 254 259 245 249 243 239 235 237 225 223 221 218 219 224 224 224 225 226 232 228 225 231 226 231 234 228 239 236 248 240 244 251 280 293 319 326 345
321 312 312 293 282 272 259 252 254 247 253 242 239 234 229 233 224 225 222 219 221 223 227 224 224 229 229 233 234 237 233 232 231 228 247 243 241 243 251 271 292 312 324
302 296 289 286 280 277 272 265 265 252 245 247 239 239 236 232 235 234 228 226 222 221 223 226 227 226 227 229 233 233 233 233 238 233 236 247 224 230 244 256 270 299 313
302 292 288 279 269 265 263 262 258 247 248 240 242 239 238 241 230 228 230 228 227 224 220 221 223 224 225 230 230 234 233 235 236 231 212 233 233 217 228 247 260 281 303
306 299 292 286 275 265 258 256 253 244 242 242 241 241 245 241 247 245 231 229 228 221 223 220 221 225 228 231 230 230 235 227 229 223 215 228 210 214 219 243 242 262 274
330 311 299 294 287 272 263 257 251 247 240 238 240 238 240 245 250 257 242 228 227 222 220 220 220 220 225 224 228 226 223 225 231 232 222 212 211 218 231 224 230 252 253
30 19 6 335 307 286 274 261 254 247 242 237 234 237 236 238 252 255 251 238 226 222 224 220 218 220 218 224 223 228 222 228 230 226 219 215 215 208 217 231 236 241 263
20 19 21 16 12 348 325 275 261 250 249 247 243 234 234 247 245 249 251 243 234 231 222 227 220 214 218 212 214 212 216 212 205 218 213 204 206 215 211 216 222 239 263
7 1 2 7 12 13 1 339 263 249 255 249 247 237 235 235 245 242 244 248 234 233 234 227 226 218 215 210 205 208 198 205 190 202 196 204 222 221 225 204 216 236 268
347 347 346 350 357 359 359 352 344 271 256 252 246 237 236 234 238 245 246 241 234 236 233 235 237 228 218 215 205 207 216 226 184 209 209 210 212 215 230 228 233 245 253
336 338 339 336 336 341 348 350 343 337 274 255 253 244 237 242 232 234 237 238 228 230 231 240 240 224 223 224 218 213 220 229 193 171 186 191 205 215 219 219 228 245 247
325 325 329 330 333 325 324 333 338 319 310 287 258 251 242 240 242 232 232 230 233 229 229 227 241 239 234 220 228 223 220 221 207 200 185 187 198 203 210 221 231 231 252
311 314 319 324 327 326 323 323 323 324 305 300 283 251 245 242 240 237 228 229 234 230 225 232 234 241 240 236 233 233 224 213 215 204 181 182 195 193 201 210 222 231 269